STARLINK-34409 (64485 NORAD) Tracking and Keplerian Element Data

This shows tracking and keplerian element data for the satellite.

Feedback or suggestion? Click here.




ElementValue
Catalog64485
NameSTARLINK-34409
Epoch Orbit2895
Epoch Day353.80149396
Epoch Year2025
RAAN128.1237
Inclination53.1582
Eccentricity0.0001139
Argument of Perigee73.4546
Mean Anonmoly286.658
Mean Motion15.3021762
Decay Rate0.00025876
L11 64485U 25133P 25353.80149396 .00025876 00000+0 88225-3 0 9994
L22 64485 53.1582 128.1237 0001139 73.4546 286.6580 15.30217620 28956



Live tracking and technical data element details for STARLINK-34409 (NORAD 64485). STARLINK-34409 can be tracked NOW for your location showing map with azimuth and elevation plus other details from your city location.







IsCatalogInMostPopularTable: catalog: 64485, numindb: 5
Update: records affected: 1



GetName: 64485 STARLINK-34409

Hit Count: updated at: Tue, 10 Feb 2026 03:04:21 GMT